Cloud_Cover
42 99 69 100 100 100 100 100 84 93 100 100 78 88 97 95 96 100 36 50 71 23 100 100 100 100 22 92 100 99 34 74 100 60 23 100 100 100 99 99 10 95 100
63 88 68 100 100 100 100 100 100 100 100 99 100 100 100 96 100 100 95 73 82 100 98 100 80 11 42 18 98 100 72 100 100 92 8 5 46 88 96 100 85 24 38
12 91 100 100 100 100 100 100 100 100 100 98 99 100 100 84 81 100 100 100 100 99 100 98 99 78 6 58 59 82 100 99 45 8 12 62 95 35 96 100 99 99 7
50 90 100 100 100 100 100 100 100 100 100 100 100 100 100 100 100 100 100 91 83 99 100 100 100 97 37 22 86 47 96 100 100 22 91 61 100 86 51 6 15 69 97
99 49 100 100 100 100 100 100 100 100 96 100 100 100 100 100 100 100 100 100 100 89 100 100 100 96 88 98 100 100 66 100 100 99 92 8 58 98 46 97 100 86 30
93 90 98 100 100 100 100 100 100 100 92 100 100 100 100 100 100 100 100 100 100 100 100 100 99 100 100 88 82 100 100 31 95 100 100 100 89 6 5 5 6 8 52
50 81 95 100 100 100 100 100 100 98 83 42 62 76 90 100 100 100 100 100 100 100 100 100 100 100 100 99 100 100 100 100 100 81 21 78 71 78 14 5 5 32 18
58 94 100 96 84 100 100 100 100 90 70 17 5 26 80 31 79 90 84 78 98 99 82 85 97 98 99 96 99 100 95 14 71 97 67 72 16 34 19 50 62 61 81
81 100 100 100 98 100 100 96 70 67 21 67 7 5 5 14 47 40 67 25 26 5 33 70 46 24 6 6 22 11 17 10 29 96 94 63 99 100 20 86 99 67 92
100 100 88 74 79 84 62 88 83 84 58 52 18 18 5 5 5 5 5 5 5 5 5 5 5 5 34 5 5 5 5 5 7 37 100 97 100 71 31 18 13 12 86
100 100 100 100 100 99 94 100 100 42 10 74 27 46 6 51 30 9 5 5 5 5 5 5 5 5 5 2 5 5 4 5 4 15 82 100 100 94 17 5 5 5 19
100 100 100 100 100 100 100 100 100 100 100 87 61 45 29 39 22 5 47 90 12 5 5 5 20 5 6 5 5 5 5 5 5 2 31 25 100 100 90 22 1 4 5
100 100 100 100 100 100 100 100 100 100 100 100 100 100 100 100 91 72 62 76 99 100 96 100 30 34 24 5 5 5 5 5 5 5 5 5 82 100 98 95 61 19 11
100 100 100 100 100 100 100 100 100 100 85 92 99 87 94 92 87 80 98 92 100 100 100 94 100 100 95 90 15 5 5 6 28 21 5 5 100 100 100 94 98 100 95
100 100 100 100 100 100 100 100 100 100 100 85 100 86 94 82 28 11 43 6 57 94 58 5 85 58 62 22 9 38 31 18 5 5 4 1 100 100 100 100 100 98 100
100 100 100 100 100 100 100 100 100 100 100 100 100 100 100 100 95 100 75 99 58 27 41 56 30 20 48 5 5 5 2 7 4 0 4 3 5 16 100 100 100 98 100
0 3 81 100 100 100 100 100 100 100 100 100 100 93 81 100 100 100 97 100 99 100 100 89 55 55 54 9 79 40 19 2 4 5 5 5 0 2 6 4 91 100 94
0 0 0 0 0 1 14 97 100 100 94 100 90 94 100 100 99 100 100 100 98 94 98 100 88 100 100 100 50 16 5 5 7 5 2 5 5 4 4 2 0 68 98
0 0 0 0 0 0 0 0 14 81 100 100 100 100 100 99 100 88 90 41 50 90 81 88 100 76 7 8 5 66 8 73 27 96 89 83 6 5 4 5 10 6 4
0 0 0 0 0 0 0 0 0 0 0 12 13 0 0 2 11 20 31 28 12 5 16 5 5 0 0 0 2 4 3 4 2 0 0 0 1 0 0 0 0 4 2
0 0 0 0 0 0 0 0 0 0 0 0 0 0 0 0 0 0 0 0 1 0 2 0 0 0 0 2 0 3 5 34 5 5 5 5 5 2 0 0 0 0 0
0 0 0 0 0 0 0 0 0 0 0 0 0 1 5 2 2 0 0 0 0 0 0 0 0 0 0 0 0 0 0 0 0 0 0 0 0 0 0 0 0 0 0
0 0 0 0 2 0 0 0 0 0 0 1 0 0 0 0 0 0 0 0 0 0 0 0 0 0 0 0 0 0 0 0 0 0 0 0 0 0 0 0 0 0 0
5 5 5 5 5 5 5 2 4 4 5 5 5 17 60 60 57 30 5 4 4 2 0 0 0 0 3 0 0 1 4 5 3 0 0 0 0 0 0 0 0 0 0
6 47 99 82 58 32 82 77 87 92 83 82 73 66 56 47 60 50 70 84 76 70 24 6 5 5 3 6 4 2 5 5 5 5 0 0 0 0 0 0 0 0 0
100 100 100 100 100 100 100 100 100 100 100 100 100 100 100 100 100 100 100 100 100 100 100 100 96 78 71 94 94 91 30 11 5 5 5 5 23 1 0 0 0 0 0